Location: Beetenbrück
(52.8113°N, 9.5946°E)
Time: 21:39:03
(UTC+00:00)

CZ-4B R/B - Pass Details

Date: 14 April 2026
Orbit: 808 x 880 km, 98.9° (Epoch: 12 May)

Event Time Altitude Azimuth Distance (km) Brightness Sun altitude
Exits shadow 18:52:49 - 145° (SE) 3,247 5.7 -5.6°
Reaches altitude 10° 18:54:46 10° 141° (SE) 2,495 5.1 -5.8°
Maximum altitude 19:00:09 54° 66° (ENE) 1,058 3.5 -6.6°
Drops below altitude 10° 19:05:38 10° 351° (N) 2,544 6.2 -7.3°
Sets 19:08:05 0° 347° (NNW) 3,490 7.0 -7.7°
